Radiation Dose at Monitoring Post of Fukushima Daini Nuclear Power Station
Date,Time,MP-1(microSv/h),MP-2(microSv/h),MP-3(microSv/h),MP-4(microSv/h),MP-5(microSv/h),MP-6(microSv/h),MP-7(microSv/h),Wind Direction,Wind Velocity(m/s),Rain
2023/11/23,00:00,0.148,0.133,0.211,0.201,0.208,0.119,0.078,southeast,0.6,No
2023/11/23,00:10,0.149,0.134,0.212,0.201,0.207,0.118,0.077,south-southeast,2.0,No
2023/11/23,00:20,0.147,0.135,0.212,0.201,0.208,0.118,0.078,south-southeast,2.1,No
2023/11/23,00:30,0.148,0.134,0.211,0.200,0.209,0.118,0.077,south-southeast,2.3,No
2023/11/23,00:40,0.148,0.133,0.213,0.200,0.208,0.119,0.077,south-southeast,1.9,No
2023/11/23,00:50,0.148,0.134,0.212,0.201,0.209,0.119,0.077,south-southwest,1.6,No
2023/11/23,01:00,0.149,0.133,0.213,0.201,0.209,0.119,0.076,-,CALM,No
2023/11/23,01:10,0.148,0.134,0.212,0.200,0.208,0.119,0.077,south,0.9,No
2023/11/23,01:20,0.147,0.134,0.211,0.201,0.208,0.120,0.077,south,1.3,No
2023/11/23,01:30,0.148,0.134,0.211,0.200,0.208,0.119,0.077,south,0.7,No
2023/11/23,01:40,0.148,0.132,0.211,0.201,0.207,0.118,0.077,west-southwest,1.5,No
2023/11/23,01:50,0.147,0.133,0.212,0.201,0.208,0.120,0.078,southwest,1.2,No
2023/11/23,02:00,0.148,0.134,0.212,0.201,0.207,0.118,0.077,south-southwest,2.0,No
2023/11/23,02:10,0.148,0.133,0.212,0.200,0.208,0.118,0.077,south-southwest,2.5,No
2023/11/23,02:20,0.148,0.133,0.212,0.200,0.209,0.119,0.077,south-southwest,1.4,No
2023/11/23,02:30,0.147,0.134,0.212,0.201,0.208,0.119,0.077,south,1.6,No
2023/11/23,02:40,0.149,0.133,0.211,0.200,0.208,0.118,0.078,southeast,2.1,No
2023/11/23,02:50,0.147,0.133,0.212,0.201,0.208,0.119,0.077,east-southeast,2.4,No
2023/11/23,03:00,0.147,0.135,0.211,0.201,0.209,0.119,0.078,east-southeast,3.2,No
2023/11/23,03:10,0.149,0.134,0.211,0.200,0.210,0.119,0.077,east-southeast,3.3,No
2023/11/23,03:20,0.148,0.134,0.212,0.201,0.208,0.119,0.079,southeast,1.5,No
2023/11/23,03:30,0.149,0.134,0.212,0.201,0.210,0.120,0.078,east-southeast,1.8,No
2023/11/23,03:40,0.149,0.134,0.212,0.201,0.209,0.119,0.077,south-southeast,1.4,No
2023/11/23,03:50,0.148,0.135,0.211,0.200,0.208,0.119,0.078,south,3.2,No
2023/11/23,04:00,0.147,0.134,0.212,0.200,0.209,0.119,0.078,south-southwest,2.8,No
2023/11/23,04:10,0.149,0.133,0.212,0.200,0.207,0.119,0.077,south,4.9,No
2023/11/23,04:20,0.148,0.134,0.211,0.200,0.207,0.120,0.077,south,4.6,No
2023/11/23,04:30,0.148,0.134,0.211,0.201,0.209,0.118,0.078,south,3.6,No
2023/11/23,04:40,0.148,0.134,0.212,0.199,0.207,0.119,0.077,south,3.3,No
2023/11/23,04:50,0.147,0.133,0.212,0.201,0.210,0.119,0.077,south,3.3,No
2023/11/23,05:00,0.147,0.134,0.211,0.200,0.208,0.119,0.077,south-southeast,3.4,No
2023/11/23,05:10,0.149,0.133,0.212,0.199,0.209,0.118,0.077,south-southeast,2.2,No
2023/11/23,05:20,0.149,0.134,0.212,0.201,0.209,0.119,0.078,south,2.2,No
2023/11/23,05:30,0.149,0.134,0.212,0.201,0.207,0.119,0.078,south-southeast,3.8,No
2023/11/23,05:40,0.149,0.133,0.211,0.200,0.209,0.119,0.077,south-southeast,4.5,No
2023/11/23,05:50,0.147,0.134,0.212,0.201,0.209,0.119,0.078,south,3.8,No
2023/11/23,06:00,0.148,0.134,0.211,0.201,0.208,0.118,0.077,south-southeast,3.1,No
2023/11/23,06:10,0.147,0.133,0.211,0.200,0.209,0.119,0.077,south,2.6,No
2023/11/23,06:20,0.148,0.133,0.213,0.200,0.207,0.118,0.077,south-southeast,3.8,No
2023/11/23,06:30,0.148,0.133,0.211,0.200,0.209,0.118,0.077,south-southeast,3.7,Yes
2023/11/23,06:40,0.148,0.133,0.212,0.199,0.207,0.117,0.077,south-southeast,4.2,No
2023/11/23,06:50,0.147,0.133,0.212,0.200,0.209,0.119,0.077,south-southeast,4.3,Yes
2023/11/23,07:00,0.148,0.133,0.211,0.200,0.207,0.117,0.077,south-southeast,4.0,Yes
2023/11/23,07:10,0.147,0.133,0.212,0.199,0.207,0.120,0.078,south-southeast,4.4,Yes
2023/11/23,07:20,0.148,0.134,0.211,0.200,0.208,0.119,0.078,south-southeast,4.2,Yes
2023/11/23,07:30,0.147,0.134,0.211,0.199,0.207,0.119,0.078,south,5.0,Yes
2023/11/23,07:40,0.148,0.134,0.212,0.201,0.208,0.120,0.078,south-southeast,4.4,Yes
2023/11/23,07:50,0.148,0.134,0.211,0.201,0.207,0.119,0.078,south,6.4,Yes
2023/11/23,08:00,0.147,0.133,0.211,0.201,0.209,0.120,0.078,south-southeast,6.6,No
2023/11/23,08:10,0.148,0.132,0.212,0.200,0.206,0.119,0.077,south,7.5,No
2023/11/23,08:20,0.148,0.133,0.210,0.199,0.209,0.119,0.077,south,6.3,No
2023/11/23,08:30,0.147,0.133,0.211,0.201,0.207,0.118,0.077,south,4.5,Yes
2023/11/23,08:40,0.145,0.133,0.209,0.199,0.208,0.118,0.077,south,4.5,No
2023/11/23,08:50,0.147,0.133,0.209,0.200,0.206,0.117,0.077,south-southeast,5.6,No
2023/11/23,09:00,0.146,0.132,0.209,0.198,0.208,0.118,0.076,south,6.2,No
2023/11/23,09:10,0.147,0.132,0.210,0.200,0.206,0.117,0.076,south,4.7,No
2023/11/23,09:20,0.145,0.133,0.209,0.198,0.207,0.119,0.076,south,4.0,No
2023/11/23,09:30,0.147,0.133,0.209,0.200,0.206,0.117,0.076,south-southwest,3.6,Yes
2023/11/23,09:40,0.147,0.132,0.209,0.197,0.207,0.118,0.075,south,4.1,Yes
2023/11/23,09:50,0.147,0.133,0.210,0.199,0.207,0.118,0.075,south,4.0,No
2023/11/23,10:00,0.146,0.132,0.208,0.199,0.206,0.117,0.077,south,3.9,No
2023/11/23,10:10,0.146,0.132,0.210,0.197,0.207,0.118,0.076,south,4.7,No
2023/11/23,10:20,0.145,0.132,0.210,0.199,0.207,0.117,0.076,south,3.8,No
2023/11/23,10:30,0.146,0.132,0.209,0.198,0.204,0.117,0.076,south,5.1,No
2023/11/23,10:40,0.145,0.132,0.210,0.198,0.206,0.117,0.075,south,5.3,No
2023/11/23,10:50,0.147,0.132,0.209,0.200,0.207,0.117,0.076,south-southeast,6.2,No
2023/11/23,11:00,0.147,0.131,0.209,0.199,0.206,0.118,0.076,south,6.2,No
2023/11/23,11:10,0.146,0.133,0.211,0.198,0.205,0.117,0.076,south,5.9,No
2023/11/23,11:20,0.148,0.131,0.208,0.200,0.208,0.118,0.077,south,6.1,No
2023/11/23,11:30,0.147,0.133,0.210,0.198,0.206,0.118,0.076,south,6.6,No
2023/11/23,11:40,0.145,0.132,0.211,0.200,0.205,0.118,0.076,south,5.2,No
2023/11/23,11:50,0.147,0.131,0.209,0.201,0.208,0.118,0.076,south,5.0,No
2023/11/23,12:00,0.148,0.132,0.209,0.199,0.207,0.118,0.077,south-southeast,6.0,No
2023/11/23,12:10,0.145,0.133,0.210,0.198,0.205,0.117,0.076,south,6.5,No
2023/11/23,12:20,0.146,0.132,0.209,0.201,0.208,0.118,0.076,south-southeast,6.5,No
2023/11/23,12:30,0.148,0.133,0.209,0.198,0.208,0.118,0.076,south-southeast,5.9,No
2023/11/23,12:40,0.146,0.133,0.210,0.200,0.206,0.117,0.076,south-southeast,6.7,No
2023/11/23,12:50,0.144,0.132,0.210,0.201,0.205,0.118,0.075,south,5.4,No
2023/11/23,13:00,0.147,0.132,0.208,0.198,0.208,0.119,0.077,south-southeast,6.5,No
2023/11/23,13:10,0.146,0.133,0.212,0.199,0.207,0.117,0.076,south-southeast,7.0,No
2023/11/23,13:20,0.146,0.132,0.209,0.200,0.205,0.118,0.077,south-southeast,7.3,No
2023/11/23,13:30,0.146,0.132,0.209,0.200,0.208,0.118,0.076,south-southeast,6.8,No
2023/11/23,13:40,0.148,0.133,0.211,0.198,0.207,0.117,0.076,south,7.5,No
2023/11/23,13:50,0.145,0.132,0.210,0.200,0.205,0.118,0.076,south,7.5,No
2023/11/23,14:00,0.147,0.132,0.210,0.200,0.208,0.118,0.076,south-southeast,7.6,No
2023/11/23,14:10,0.147,0.134,0.211,0.198,0.207,0.118,0.077,south,6.4,No
2023/11/23,14:20,0.147,0.133,0.209,0.201,0.206,0.119,0.076,south,5.9,No
2023/11/23,14:30,0.147,0.134,0.211,0.199,0.209,0.118,0.076,south-southeast,6.7,No
2023/11/23,14:40,0.146,0.132,0.209,0.201,0.207,0.119,0.076,south-southeast,6.6,No
2023/11/23,14:50,0.148,0.132,0.212,0.200,0.209,0.117,0.077,south-southeast,6.8,No
2023/11/23,15:00,0.147,0.133,0.210,0.200,0.209,0.118,0.077,south,7.0,No
2023/11/23,15:10,0.147,0.133,0.212,0.202,0.206,0.118,0.077,south,7.1,No
2023/11/23,15:20,0.147,0.133,0.211,0.199,0.209,0.118,0.077,south,5.5,No
2023/11/23,15:30,0.147,0.132,0.210,0.201,0.206,0.119,0.077,south-southwest,4.9,No
2023/11/23,15:40,0.148,0.133,0.210,0.199,0.210,0.118,0.076,south,4.0,No
2023/11/23,15:50,0.147,0.132,0.211,0.201,0.208,0.118,0.077,south,4.2,No
2023/11/23,16:00,0.147,0.133,0.210,0.199,0.208,0.119,0.077,south,3.8,No
2023/11/23,16:10,0.147,0.132,0.211,0.200,0.209,0.118,0.076,south-southwest,4.9,No
2023/11/23,16:20,0.148,0.133,0.211,0.201,0.207,0.118,0.076,south-southwest,4.8,No
2023/11/23,16:30,0.146,0.132,0.210,0.200,0.209,0.118,0.077,south-southwest,4.1,No
2023/11/23,16:40,0.147,0.133,0.210,0.200,0.208,0.119,0.076,south-southwest,3.7,No
2023/11/23,16:50,0.147,0.133,0.212,0.200,0.209,0.118,0.077,south-southwest,3.7,No
2023/11/23,17:00,0.148,0.133,0.209,0.200,0.207,0.118,0.076,southwest,3.2,No
2023/11/23,17:10,0.147,0.133,0.211,0.200,0.209,0.118,0.076,southwest,2.7,No
2023/11/23,17:20,0.148,0.133,0.209,0.199,0.207,0.118,0.076,southwest,4.1,No
2023/11/23,17:30,0.147,0.133,0.212,0.200,0.209,0.118,0.077,southwest,1.7,No
2023/11/23,17:40,0.147,0.133,0.210,0.200,0.206,0.118,0.077,southwest,1.5,No
2023/11/23,17:50,0.147,0.134,0.212,0.201,0.208,0.118,0.077,south,1.2,No
2023/11/23,18:00,0.148,0.133,0.210,0.200,0.206,0.118,0.077,southwest,1.4,No
2023/11/23,18:10,0.147,0.133,0.211,0.201,0.209,0.118,0.076,west-southwest,1.6,No
2023/11/23,18:20,0.148,0.133,0.211,0.199,0.207,0.118,0.077,west-southwest,1.9,No
2023/11/23,18:30,0.148,0.133,0.210,0.201,0.209,0.118,0.076,west-southwest,1.1,No
2023/11/23,18:40,0.147,0.132,0.211,0.200,0.206,0.119,0.077,southwest,1.9,No
2023/11/23,18:50,0.147,0.132,0.211,0.199,0.209,0.117,0.077,west-southwest,1.4,No
2023/11/23,19:00,0.146,0.133,0.211,0.201,0.207,0.119,0.077,west-southwest,2.5,No
2023/11/23,19:10,0.148,0.133,0.211,0.200,0.208,0.119,0.077,west-southwest,3.4,No
2023/11/23,19:20,0.147,0.133,0.211,0.200,0.207,0.119,0.078,west,4.1,No
2023/11/23,19:30,0.147,0.133,0.210,0.201,0.207,0.119,0.077,west,4.7,No
2023/11/23,19:40,0.147,0.134,0.212,0.200,0.209,0.118,0.077,west,3.5,No
2023/11/23,19:50,0.148,0.133,0.211,0.201,0.208,0.119,0.077,west,2.4,No
2023/11/23,20:00,0.148,0.134,0.210,0.200,0.209,0.118,0.077,west-southwest,2.2,No
2023/11/23,20:10,0.147,0.134,0.211,0.201,0.207,0.119,0.077,west-southwest,1.4,No
2023/11/23,20:20,0.148,0.134,0.212,0.200,0.208,0.119,0.077,southwest,1.0,No
2023/11/23,20:30,0.147,0.133,0.211,0.200,0.208,0.119,0.077,west-southwest,1.4,No
2023/11/23,20:40,0.147,0.134,0.211,0.201,0.209,0.119,0.077,west,1.3,No
2023/11/23,20:50,0.148,0.134,0.212,0.201,0.208,0.118,0.077,west-northwest,0.9,No
2023/11/23,21:00,0.147,0.134,0.211,0.201,0.208,0.119,0.078,-,CALM,No
2023/11/23,21:10,0.147,0.133,0.212,0.201,0.210,0.119,0.077,west-southwest,0.6,No
2023/11/23,21:20,0.148,0.133,0.211,0.200,0.208,0.118,0.078,west-southwest,1.3,No
2023/11/23,21:30,0.148,0.134,0.212,0.201,0.208,0.119,0.077,west,1.7,No
2023/11/23,21:40,0.148,0.134,0.212,0.200,0.208,0.118,0.077,west,1.3,No
2023/11/23,21:50,0.148,0.134,0.211,0.201,0.208,0.119,0.077,west,2.2,No
2023/11/23,22:00,0.148,0.134,0.211,0.201,0.210,0.119,0.077,west,1.8,No
2023/11/23,22:10,0.147,0.134,0.212,0.200,0.209,0.120,0.077,west-northwest,3.5,No
2023/11/23,22:20,0.148,0.133,0.212,0.201,0.207,0.119,0.078,west-northwest,1.8,No
2023/11/23,22:30,0.148,0.134,0.212,0.202,0.208,0.118,0.077,west,2.1,No
2023/11/23,22:40,0.148,0.134,0.212,0.201,0.208,0.119,0.077,south-southwest,0.9,No
2023/11/23,22:50,0.148,0.134,0.211,0.201,0.209,0.119,0.077,south-southeast,1.4,No
2023/11/23,23:00,0.148,0.132,0.211,0.200,0.208,0.120,0.077,southeast,1.0,No
2023/11/23,23:10,0.149,0.134,0.211,0.200,0.208,0.120,0.077,west,0.8,No
2023/11/23,23:20,0.147,0.133,0.212,0.199,0.209,0.119,0.077,west-southwest,1.7,No
2023/11/23,23:30,0.147,0.134,0.211,0.200,0.208,0.118,0.078,west-southwest,2.3,No
2023/11/23,23:40,0.147,0.135,0.212,0.201,0.209,0.119,0.077,south-southwest,3.6,No
2023/11/23,23:50,0.148,0.133,0.211,0.200,0.208,0.119,0.077,southwest,4.6,No
